Вернуться в каталог

STARLINK-37347

АктивенСвязьSSO
NORAD 68746·PAYLOAD·🇺🇸 United States

Запущен Apr 15, 2026 с Vandenberg Space Force Base

Loading…

Ближайшие Пролёты (ближайшие 24 часа)

TLE

СвежийSource: CelesTrak SupGP

Эпоха: Sep 15, 2026, 04:16 UTC

1 68746C 26082U   26258.17826389 -.00028115  00000+0 -87263-3 0  2581
2 68746  97.2844 120.4146 0002081  94.5139 157.0481 15.33457313    19

Отслеживайте STARLINK-37347 в реальном времени с AllMySat

Download on the App Store